Terug naar catalogus

SHUNTIAN

ActiefWetenschapSSO
NORAD 44882·PAYLOAD·🇨🇳 China
Deze satellietnaam is nog niet bevestigd door officiële bronnen.

Gelanceerd Dec 20, 2019 vanaf Taiyuan Satellite Launch Center

Loading…

Volgende Passages (komende 24 uur)

TLE

VersSource: Space-Track

Epoch: Sep 14, 2026, 13:39 UTC

1 44882U 19093D   26257.56906057  .00004942  00000-0  34131-3 0  9992
2 44882  97.7927 353.2749 0014659  82.1928 278.0962 15.06148260366065

Volg SHUNTIAN in realtime met AllMySat

Download on the App Store